Change the Weather History Date:

Saturday, April 20, 2013

  Actual Average Record
Temperature  
Mean Temperature 56 °F -  
Max Temperature 64 °F 58 °F 88 °F (2005)
Min Temperature 45 °F 36 °F 25 °F (2001)
Degree Days  
Heating Degree Days 9    
Growing Degree Days 6 (Base 50)    
Moisture  
Dew Point 45 °F    
Average Humidity 72    
Maximum Humidity 96    
Minimum Humidity 34    
Precipitation  
Precipitation 0.47 in - - ()
Sea Level Pressure  
Sea Level Pressure 29.82 in    
Wind  
Wind Speed 12 mph (West)    
Max Wind Speed 16 mph    
Max Gust Speed 37 mph    
Visibility 8 miles    
Events Rain , Thunderstorm    
Averages and records for this station are not official NWS values.
T = Trace of Precipitation, MM = Missing Value Source: NWS Daily Summary

Daily Weather History Graph

Daily Weather History Graph

Search for Another Location

Airport or City:

Trip Planner

Search our weather history database for the weather conditions in past years. The results will help you decide how hot, cold, wet, or windy it might be!

Date:

Astronomy

Apr. 20, 2013 Rise Set
Actual Time 5:55 AM EDT 7:31 PM EDT
Civil Twilight 5:26 AM EDT 8:01 PM EDT
Nautical Twilight 4:50 AM EDT 8:37 PM EDT
Astronomical Twilight 4:12 AM EDT 9:15 PM EDT
Moon 2:07 PM EDT (4/20) 2:49 AM EDT (4/20)
Length of Visible Light 14h 35m
Length of Day
13h 36m
Waxing Gibbous, 71% of the Moon is Illuminated
Apr 20
Waxing Gibbous
Apr 25
Full
May 2
Last Quarter
May 9
New
May 18
First Quarter

Hourly Weather History & Observations

Time (EDT) Temp. Windchill Dew Point Humidity Pressure Visibility Wind Dir Wind Speed Gust Speed Precip Events Conditions
12:41 AM 64.4 °F - 62.6 °F 94% 29.67 in 3.0 mi SSW 16.1 mph 36.8 mph 0.06 in Rain , Thunderstorm Light Rain
12:50 AM 64.4 °F - 62.6 °F 94% 29.66 in 6.0 mi SSW 12.7 mph 25.3 mph 0.07 in Rain Light Rain
12:53 AM 64.9 °F - 63.0 °F 93% 29.66 in 7.0 mi SSW 15.0 mph 21.9 mph 0.07 in Rain Light Rain
1:53 AM 64.0 °F - 62.1 °F 93% 29.65 in 7.0 mi SSW 15.0 mph 24.2 mph 0.05 in Rain Light Rain
2:18 AM 62.6 °F - 60.8 °F 94% 29.65 in 5.0 mi SSW 13.8 mph 23.0 mph 0.03 in Rain Light Rain
2:53 AM 63.0 °F - 61.0 °F 93% 29.62 in 10.0 mi SSW 8.1 mph 17.3 mph 0.05 in Rain Light Rain
3:14 AM 62.6 °F - 60.8 °F 94% 29.62 in 10.0 mi SSW 10.4 mph 17.3 mph 0.00 in   Overcast
3:21 AM 62.6 °F - 60.8 °F 94% 29.62 in 10.0 mi SSW 13.8 mph 19.6 mph 0.00 in   Overcast
3:53 AM 63.0 °F - 61.0 °F 93% 29.62 in 9.0 mi SSW 11.5 mph 19.6 mph 0.01 in Rain Light Rain
4:53 AM 62.1 °F - 61.0 °F 96% 29.64 in 5.0 mi West 12.7 mph 16.1 mph 0.02 in Rain Light Rain
5:35 AM 53.6 °F - 51.8 °F 94% 29.67 in 7.0 mi Variable 5.8 mph - 0.06 in Rain Light Rain
5:53 AM 53.1 °F - 51.1 °F 93% 29.70 in 9.0 mi Variable 6.9 mph - 0.07 in Rain Light Rain
6:53 AM 52.0 °F - 50.0 °F 93% 29.73 in 4.0 mi WNW 8.1 mph - 0.08 in Rain Light Rain
7:09 AM 50.0 °F - 48.2 °F 94% 29.75 in 5.0 mi NW 12.7 mph - 0.02 in Rain Light Rain
7:53 AM 48.9 °F - 46.9 °F 93% 29.78 in 5.0 mi NW 6.9 mph - 0.09 in Rain Light Rain
8:00 AM 48.2 °F - 46.4 °F 93% 29.78 in 5.0 mi NW 6.9 mph - 0.01 in Rain Light Rain
8:21 AM 48.2 °F - 46.4 °F 93% 29.81 in 8.0 mi WNW 8.1 mph - 0.02 in Rain Light Rain
8:28 AM 48.2 °F - 46.4 °F 93% 29.80 in 9.0 mi NW 5.8 mph - 0.03 in Rain Light Rain
8:53 AM 48.9 °F - 46.0 °F 90% 29.79 in 10.0 mi WNW 9.2 mph - 0.03 in   Overcast
9:42 AM 50.0 °F - 44.6 °F 82% 29.82 in 10.0 mi West 9.2 mph - 0.00 in   Overcast
9:53 AM 48.9 °F - 42.1 °F 77% 29.82 in 10.0 mi West 10.4 mph - 0.00 in   Overcast
10:53 AM 51.1 °F - 39.0 °F 63% 29.86 in 10.0 mi West 9.2 mph 23.0 mph N/A   Mostly Cloudy
11:53 AM 53.1 °F - 39.0 °F 59% 29.87 in 10.0 mi West 11.5 mph 17.3 mph N/A   Mostly Cloudy
12:53 PM 55.9 °F - 35.1 °F 45% 29.87 in 10.0 mi WNW 13.8 mph 26.5 mph N/A   Partly Cloudy
1:53 PM 57.0 °F - 36.0 °F 45% 29.87 in 10.0 mi West 15.0 mph 20.7 mph N/A   Clear
2:53 PM 57.9 °F - 32.0 °F 37% 29.88 in 10.0 mi WNW 16.1 mph 23.0 mph N/A   Clear
3:53 PM 57.9 °F - 30.0 °F 35% 29.91 in 10.0 mi WNW 12.7 mph 21.9 mph N/A   Clear
4:53 PM 57.0 °F - 30.0 °F 36% 29.94 in 10.0 mi West 16.1 mph 21.9 mph N/A   Clear
5:53 PM 57.0 °F - 28.9 °F 34% 29.96 in 10.0 mi West 11.5 mph 19.6 mph N/A   Clear
6:53 PM 55.9 °F - 30.0 °F 37% 29.99 in 10.0 mi West 4.6 mph - N/A   Overcast
7:53 PM 52.0 °F - 28.0 °F 40% 30.03 in 10.0 mi NW 6.9 mph - N/A   Clear
8:53 PM 52.0 °F - 28.0 °F 40% 30.09 in 10.0 mi NW 11.5 mph 17.3 mph N/A   Clear
9:53 PM 50.0 °F - 27.0 °F 41% 30.14 in 10.0 mi NNW 5.8 mph - N/A   Clear
10:53 PM 48.0 °F - 25.0 °F 41% 30.17 in 10.0 mi NW 13.8 mph 21.9 mph N/A   Clear
11:53 PM 45.0 °F 38.9 °F 24.1 °F 44% 30.22 in 10.0 mi WNW 12.7 mph 18.4 mph N/A   Clear